Regional Weather Roundup
Issued by NWS

Home | Current Version | Previous Version | Graphics & Text | Print | Product List | Glossary On
Versions: 1 2 3 4 5 6 7 8 9 10 11 12 13 14 15 16 17 18 19 20 21 22 23 24 25 26 27 28 29 30 31 32 33 34 35 36 37 38 39 40 41 42 43 44 45 46 47 48 49 50
000
ASUS43 KMPX 032310
RWRMN
WEATHER ROUNDUP FOR MINNESOTA
NATIONAL WEATHER SERVICE TWIN CITIES/CHANHASSEN MN
600 PM CDT TUE MAY 03 2016


NOTE: "FAIR" INDICATES FEW OR NO CLOUDS BELOW 12,000 FEET WITH NO
SIGNIFICANT WEATHER AND/OR OBSTRUCTIONS TO VISIBILITY. N/A MEANS
CURRENT SKY AND/OR WEATHER CONDITIONS ARE NOT AVAILABLE.

MNZ060>063-068>070-040000-
   Twin Cities Metro

CITY           SKY/WX    TMP DP  RH WIND       PRES   REMARKS
TWIN CITIES    MOSUNNY   71  40  32 W15G23    29.66F
ST PAUL        CLOUDY    70  41  34 W14       29.66F
CRYSTAL        PTSUNNY   73  38  27 NW15G28   29.65F
BLAINE         PTSUNNY   72  45  37 N10       29.66F
EDEN PRAIRIE   MOSUNNY   71  39  31 W10       29.66F
SOUTH ST PAUL  MOSUNNY   72  38  29 W16G25    29.66F
LAKE ELMO      FAIR      64  43  45 W17G23    29.68S
$$
MNZ001>005-007-008-013>017-022>024-027-028-040000-
   Northwest Minnesota

CITY           SKY/WX    TMP DP  RH WIND       PRES   REMARKS
BEMIDJI        SUNNY     62  29  29 N17G25    29.83R
HALLOCK        SUNNY     63  27  25 N20G29    29.93R
ROSEAU         MOSUNNY   64  34  32 N20       29.90R
WARROAD        SUNNY     61  37  41 N15       29.90R
THIEF RVR FALL SUNNY     63  28  27 N21G26    29.91R
CROOKSTON      SUNNY     64  27  24 N22G35    29.90R
FOSSTON        SUNNY     64  25  22 NW21      29.87R
DETROIT LAKES  SUNNY     63  27  25 N23G35    29.85R
MOORHEAD       SUNNY     68  25  19 N33G40    29.87R
PARK RAPIDS    SUNNY     65  22  19 N20G26    29.79R
MAHNOMEN       FAIR      64  26  23 N24G31    29.85R
$$
MNZ006-009>011-018-025>026-040000-
   North Central Minnesota

CITY           SKY/WX    TMP DP  RH WIND       PRES   REMARKS
BAUDETTE       MOSUNNY   60  32  34 N21G29    29.87R
FLAG ISLAND    SUNNY     55  36  47 N15       29.89R
INTL FALLS     MOSUNNY   58  32  37 NE18G28   29.83R
WASKISH        SUNNY     61  36  39 N14G21    29.85R
BIG FORK       MOSUNNY   63  28  27 N14G23    29.80R
LONGVILLE      SUNNY     63  25  23 NW8G20    29.79R
GRAND RAPIDS   SUNNY     63  28  27 N21G30    29.78R
CRANE LAKE     PTSUNNY   55  32  41 N10G21    29.81R
ORR            PTSUNNY   63  27  25 NW10G17   29.77R
COOK           MOSUNNY   59  30  33 NW12G23   29.78R
WALKER         FAIR      62  26  25 N21G30    29.81R
$$
MNZ012-019>021-037-040000-
   Northeast Minnesota

CITY           SKY/WX    TMP DP  RH WIND       PRES   REMARKS
DULUTH         MOSUNNY   64  28  25 N17G26    29.70R
ELY            MOSUNNY   57  27  30 N14G25    29.75R
HIBBING        MOSUNNY   61  30  31 NW23G31   29.74R
EVELETH        SUNNY     61  27  27 N14G25    29.75R
DULUTH HARBOR  MOSUNNY   57  30  35 N17       29.69R
TWO HARBORS    MOSUNNY   66  37  34 N10G22    29.68R
SILVER BAY     MOSUNNY   64  27  24 N9G21     29.68R
GRAND MARAIS     N/A     61  31  32 N9G22     29.68R
G MARAIS ARPRT MOSUNNY   54  28  37 NW12G21   29.71R
$$
MNZ029>031-032-039>041-046>048-054>057-064-040000-
   West Central Minnesota

CITY           SKY/WX    TMP DP  RH WIND       PRES   REMARKS
FERGUS FALLS   SUNNY     66  30  26 N31G43    29.80R
WHEATON        SUNNY     70  30  23 NW24G36   29.85R
MORRIS         SUNNY     70  27  19 N35G44    29.80R
ALEXANDRIA     SUNNY     67  25  20 NW25G32   29.79R
ELBOW LAKE     FAIR      65  29  25 NW23G33   29.81S
WADENA         SUNNY     66  30  26 N22G29    29.78R
GLENWOOD       SUNNY     68  23  18 NW28G35   29.79R
APPLETON       SUNNY     72  19  14 N30G37    29.80R
BENSON         SUNNY     70  16  12 N25G38    29.78R
ORTONVILLE     SUNNY     70  25  18 N28G40    29.82R
MADISON        SUNNY     70  21  16 N29G37    29.81R
WILLMAR        FAIR      72  28  20 NW26G36   29.76R
$$
MNZ033>034-036-042>043-049>051-058-059-040000-
   Central Minnesota

CITY           SKY/WX    TMP DP  RH WIND       PRES   REMARKS
ST CLOUD       SUNNY     71  26  18 N20G28    29.69R
SAUK CENTRE    FAIR      68  29  23 NW16G28   29.75R
PAYNESVILLE    SUNNY     70  23  17 NW22G32   29.74R
AITKIN         SUNNY     68  12  11 N16G23    29.73R
PINE RIVER     SUNNY     64  32  29 NW13G25   29.82R
BRAINERD       SUNNY     65  22  19 N18G29    29.76R
STAPLES        SUNNY     66  18  15 N23G30    29.77R
LONG PRAIRIE   FAIR      68  28  22 NW16G24   29.76R
LITTLE FALLS   SUNNY     68  25  19 N9G25     29.74R
LITCHFIELD     SUNNY     72  28  20 N23G31    29.72R
BUFFALO        MOSUNNY   71  28  20 NW17G25   29.69S
MAPLE LAKE     MOSUNNY   73  32  22 N20       29.70R
HUTCHINSON     SUNNY     74  34  23 NW20G30   29.71S
$$
MNZ037-044-045-052-053-040000-
   East Central Minnesota

CITY           SKY/WX    TMP DP  RH WIND       PRES   REMARKS
PRINCETON      SUNNY     72  30  21 N18G25    29.69R
MORA           SUNNY     64  28  25 NW21G32   29.71R
CAMBRIDGE      SUNNY     72  45  37 NW20G25   29.67R
RUSH CITY      SUNNY     69  31  24 N15G24    29.68R
MOOSE LAKE     SUNNY     68  32  26 N17G25    29.68R
HINCKLEY       CLOUDY    68  30  24 N16G25    29.69R
CLOQUET        MOSUNNY   64  21  19 N16G25    29.70R HAZE
MCGREGOR       SUNNY     64  30  27 NW23G31   29.73S
$$
MNZ071>073-080-081-089-090-097-098-040000-
   Southwest Minnesota

CITY           SKY/WX    TMP DP  RH WIND       PRES   REMARKS
MONTEVIDEO     SUNNY     72  25  17 N29G39    29.80R
GRANITE FALLS  SUNNY     73  29  19 NW25G36   29.79R
CANBY          SUNNY     73  31  21 N23G32    29.81R
MARSHALL       SUNNY     73  31  21 N28G40    29.76R
REDWOOD FALLS  MOSUNNY   74  28  18 NW22G37   29.73F
OLIVIA         SUNNY     72  28  20 NW23G37   29.73R
PIPESTONE      PTSUNNY   72  32  23 NW15G25   29.80F
WINDOM         MOSUNNY   72  37  28 W17G24    29.76F
WORTHINGTON    PTSUNNY   69  45  41 W17       29.80F
JACKSON        MOSUNNY   70  34  26 NW18G24   29.79F
TRACY          PTSUNNY   74  40  28 N26G33    29.76F
SLAYTON        CLOUDY    70  39  32 W21       29.79F
$$
MNZ065>067-074>077-082>085-091>093-040000-
   South Central Minnesota

CITY           SKY/WX    TMP DP  RH WIND       PRES   REMARKS
MANKATO        CLOUDY    70  37  30 W14G24    29.71F
NEW ULM        CLOUDY    70  39  32 NW17      29.71F
ST JAMES       MOSUNNY   66  36  32 W22       29.75F
FAIRMONT       MOSUNNY   72  28  20 W21G26    29.76F
GLENCOE        CLOUDY    73  44  36 W13G20    29.68F
FARIBAULT      MOSUNNY   72  41  33 W10G16    29.70F
OWATONNA       CLOUDY    70  37  30 W16       29.71F
WASECA         CLOUDY    70  39  32 W14       29.73F
ALBERT LEA     PTSUNNY   68  43  40 W9G18     29.74F
$$
MNZ078>079-086>088-094>096-040000-
   Southeast Minnesota

CITY           SKY/WX    TMP DP  RH WIND       PRES   REMARKS
ROCHESTER      MOSUNNY   67  42  40 W18       29.72F
RED WING       MOSUNNY   72  36  26 NW15G22   29.65F
STANTON        MOSUNNY   70  38  31 W13G22    29.67F
DODGE CENTER   SUNNY     66  39  37 W18G25    29.71F
WINONA         CLOUDY    70  36  28 W13G21    29.69F
AUSTIN         MOSUNNY   66  41  39 W12G20    29.74F
PRESTON        MOSUNNY   65  39  38 W17G28    29.74F
$$
ABBREVIATIONS USED IN REMARKS
   TC - TEMPERATURES IN CELSIUS
  WCI - WIND CHILL INDEX
   HX - HEAT INDEX
  VSB - VISIBILITY
$$




USA.gov is the U.S. government's official web portal to all federal, state and local government web resources and services.